Weather History for Homer, AK

Change the Weather History Date:

Saturday, May 4, 2013

  Actual Average Record
Temperature  
Mean Temperature 38 °F -  
Max Temperature 43 °F 46 °F 59 °F (2014)
Min Temperature 30 °F 34 °F 6 °F (1949)
Degree Days  
Heating Degree Days 28    
Moisture  
Dew Point 30 °F    
Average Humidity 81    
Maximum Humidity 92    
Minimum Humidity 60    
Precipitation  
Precipitation 0.17 in - - ()
Sea Level Pressure  
Sea Level Pressure 29.83 in    
Wind  
Wind Speed 3 mph (WSW)    
Max Wind Speed 16 mph    
Max Gust Speed 24 mph    
Visibility 6 miles    
Events Rain , Snow    
Averages and records for this station are not official NWS values.
T = Trace of Precipitation, MM = Missing Value Source: NWS Daily Summary

Daily Weather History Graph

Daily Weather History Graph

Search for Another Location

Airport:

Trip Planner

Search our weather history database for the weather conditions in past years. The results will help you decide how hot, cold, wet, or windy it might be!

Date:

Astronomy

May. 04, 2013 Rise Set
Actual Time 5:56 AM AKDT 10:10 PM AKDT
Civil Twilight 5:02 AM AKDT 11:05 PM AKDT
Nautical Twilight 3:34 AM AKDT 12:35 AM AKDT
Astronomical Twilight Sun does not rise Sun does not rise
Moon 4:17 AM AKDT (5/4) 4:08 PM AKDT (5/4)
Length of Visible Light 18h 03m
Length of Day
16h 14m
Waning Crescent, 25% of the Moon is Illuminated
May 4
Waning Crescent
May 9
New
May 17
First Quarter
May 24
Full
May 31
Last Quarter

Hourly Weather History & Observations

Time (AKDT) Temp. Windchill Dew Point Humidity Pressure Visibility Wind Dir Wind Speed Gust Speed Precip Events Conditions
12:53 AM 37.0 °F 34.5 °F 28.9 °F 73% 29.90 in 10.0 mi Variable 3.5 mph - N/A   Overcast
1:51 AM 37.4 °F 32.8 °F 30.2 °F 75% 29.88 in 10.0 mi East 5.8 mph - N/A   Overcast
1:53 AM 37.0 °F 32.4 °F 30.0 °F 76% 29.88 in 10.0 mi East 5.8 mph - N/A   Overcast
2:51 AM 35.6 °F 30.7 °F 30.2 °F 81% 29.86 in 5.0 mi East 5.8 mph - 0.00 in Snow Light Snow
2:53 AM 35.1 °F 31.0 °F 30.9 °F 85% 29.87 in 5.0 mi East 4.6 mph - 0.01 in Snow Light Snow
3:07 AM 33.8 °F - 30.2 °F 87% 29.86 in 4.0 mi Calm Calm - 0.00 in Snow Light Snow
3:22 AM 33.8 °F - 30.2 °F 87% 29.85 in 2.0 mi Calm Calm - 0.01 in Snow Light Snow
3:44 AM 33.8 °F - 30.2 °F 87% 29.85 in 2.0 mi Calm Calm - 0.02 in Snow Light Snow
3:53 AM 33.1 °F - 30.9 °F 92% 29.85 in 1.8 mi Calm Calm - 0.02 in Snow Light Snow
4:07 AM 33.8 °F - 30.2 °F 87% 29.84 in 2.0 mi Calm Calm - 0.01 in Snow Light Snow
4:12 AM 33.8 °F - 30.2 °F 87% 29.84 in 1.8 mi Calm Calm - 0.02 in Snow Light Snow
4:51 AM 33.8 °F - 30.2 °F 87% 29.83 in 2.0 mi Calm Calm - 0.03 in Snow Light Snow
4:53 AM 33.1 °F - 30.9 °F 92% 29.83 in 2.0 mi Calm Calm - 0.03 in Snow Light Snow
5:06 AM 33.8 °F - 30.2 °F 87% 29.82 in 2.5 mi Calm Calm - 0.01 in Snow Light Snow
5:23 AM 33.8 °F - 30.2 °F 87% 29.82 in 1.8 mi Calm Calm - 0.01 in Snow Light Snow
5:53 AM 33.1 °F - 30.9 °F 92% 29.82 in 1.5 mi Calm Calm - 0.03 in Snow Light Snow
6:21 AM 33.8 °F - 30.2 °F 87% 29.80 in 1.2 mi Calm Calm - 0.01 in Snow Light Snow
6:36 AM 33.8 °F - 30.2 °F 87% 29.80 in 1.2 mi Calm Calm - 0.02 in Snow Light Snow
6:51 AM 33.8 °F - 30.2 °F 87% 29.79 in 1.0 mi Calm Calm - 0.02 in Snow Light Snow
6:53 AM 33.1 °F - 30.9 °F 92% 29.80 in 1.0 mi Calm Calm - 0.03 in Snow Light Snow
7:53 AM 33.1 °F - 30.9 °F 92% 29.78 in 1.0 mi Calm Calm - 0.02 in Snow Light Snow
8:53 AM 34.0 °F - 32.0 °F 92% 29.78 in 1.5 mi Calm Calm - 0.02 in Snow Light Snow
9:03 AM 33.8 °F - 30.2 °F 87% 29.78 in 2.0 mi Calm Calm - 0.00 in Snow Light Snow
9:17 AM 33.8 °F - 30.2 °F 87% 29.78 in 4.0 mi Calm Calm - 0.00 in Snow Light Snow
9:24 AM 33.8 °F - 30.2 °F 87% 29.78 in 4.0 mi Calm Calm - 0.00 in Snow Light Snow
9:34 AM 33.8 °F 30.8 °F 30.2 °F 87% 29.78 in 4.0 mi West 3.5 mph - 0.00 in Snow Light Snow
9:48 AM 33.8 °F - 30.2 °F 87% 29.78 in 7.0 mi Calm Calm - 0.00 in   Overcast
9:53 AM 34.0 °F 31.0 °F 30.9 °F 89% 29.78 in 7.0 mi WSW 3.5 mph - 0.00 in   Overcast
10:13 AM 35.6 °F 32.8 °F 32.0 °F 87% 29.77 in 10.0 mi WSW 3.5 mph - N/A   Overcast
10:53 AM 36.0 °F 32.1 °F 32.0 °F 86% 29.78 in 10.0 mi SSW 4.6 mph - N/A   Overcast
11:53 AM 37.9 °F 34.4 °F 32.0 °F 79% 29.79 in 10.0 mi WSW 4.6 mph - 0.01 in   Overcast
12:53 PM 39.9 °F 37.8 °F 34.0 °F 79% 29.79 in 10.0 mi Variable 3.5 mph - 0.00 in Rain Light Rain
1:53 PM 42.1 °F 40.2 °F 34.0 °F 73% 29.81 in 10.0 mi WNW 3.5 mph - 0.00 in   Mostly Cloudy
2:53 PM 41.0 °F 35.2 °F 33.1 °F 73% 29.82 in 10.0 mi West 9.2 mph - N/A   Overcast
3:53 PM 39.9 °F 32.9 °F 32.0 °F 73% 29.83 in 10.0 mi West 11.5 mph - N/A   Mostly Cloudy
4:53 PM 41.0 °F 33.9 °F 30.0 °F 65% 29.85 in 10.0 mi WSW 12.7 mph - N/A   Mostly Cloudy
5:53 PM 42.1 °F 35.2 °F 28.9 °F 60% 29.86 in 10.0 mi West 12.7 mph - N/A   Mostly Cloudy
6:53 PM 42.1 °F 34.2 °F 28.9 °F 60% 29.88 in 10.0 mi West 16.1 mph 24.2 mph N/A   Clear
7:53 PM 41.0 °F 33.1 °F 28.0 °F 60% 29.90 in 10.0 mi WSW 15.0 mph 24.2 mph N/A   Clear
8:53 PM 39.9 °F 32.1 °F 28.0 °F 63% 29.92 in 10.0 mi WSW 13.8 mph - N/A   Clear
9:53 PM 37.9 °F 32.1 °F 28.0 °F 68% 29.93 in 10.0 mi WSW 8.1 mph - N/A   Clear
10:53 PM 35.1 °F - 27.0 °F 72% 29.95 in 10.0 mi Calm Calm - N/A   Clear
11:53 PM 30.9 °F - 25.0 °F 79% 29.97 in 10.0 mi Calm Calm - N/A   Clear